OPS 4682 DEB, 12102

Orbit data source: Space-Track

OPS 4682 DEB, 12102 is space debris in LEO originally from a launch on Sat, 03 Apr 1965 UTC launched from the Air Force Western Test Range (AFWTR). Debris objects in space refer to the collection of defunct objects orbiting the Earth. Examples of debris include non-operational satellites, rocket bodies, and fragments generated from explosions, collisions, or faulty payload assembly.

Loading next visibility...
Identifier
12102, 1965-027G
Orbit
LEO
Country
Flag of USUS
Related business
Manufacturer
Unknown
Mission
Spacecraft
Bus & Motor
Unknown
Mass
Unknown
Launch date (UTC)
1965-04-03 (61 years ago)
Launch vehicle
Unknown
Launch site
Air Force Western Test Range (AFWTR)
Object type
Payload
Rocket body
Debris
Shape & HBR
Unknown shape, 0.1 m
Radar Cross Section
Small (<0.1 m²)

Expand to show TLE details & history
Last TLE update: 2 days ago

TLE from 2 days ago
0 OPS 4682 DEB
1 12102U 65027G   26102.23999725  .00000736  00000-0  24609-2 0  9992
2 12102  90.2537  13.0385 0025085 151.0800   3.6260 12.98731772882179
Epoch: 2026-04-12T05:45Z
TLE epoch observation values (Epoch: 2026-04-12T05:45:35.762Z)
Latitude
25.30214°
Longitude
-93.68897°
Altitude
1,250.978 km
Speed
7.241 km/s
True Right ascension
12h 52m 37s
True Declination
25° 10' 41"
Sunlit
Object was in full shadow at epoch
Visualization orbit readout
Latitude
Unknown
Longitude
Unknown
Altitude
Unknown
Speed
Unknown
Apparent Right ascension
Unknown
Apparent Declination
Unknown
Sunlit
N/A
Visualization observer readout
Local Sidereal Time
15:42:01
Azimuth
Unknown
Elevation
Unknown
Doppler factor
Unknown
Orbital elements
Apogee altitude
1,283.359 km
Perigee altitude
1,245.018 km
Semi-major axis
7,642.326 km
Eccentricity
0.00251
Inclination
90.2537°
RAAN
13.0385°
Arg. of periapsis
151.08°
True anomaly
3.64424°
Mean anomaly
3.626°
Eccentric anomaly
3.63511°
Mean motion
3.24866 °/min
Orbital period
110.81 mins
BSTAR
0.0024609
Loading maneuver chart data...
Computing Atmospheric mass density...
Loading historical data...
Loading historical data...
Loading historical data...
Loading historical data...
Loading historical data...
Loading historical data...
Loading historical data...

Documentation

Showing up to 5 results
|